AirNav   Air Wisconsin pilot careers
 
 1151 users online  

10NE St Joseph Hospital Heliport
Omaha, Nebraska, USA

GOING TO OMAHA?


FAA INFORMATION EFFECTIVE 07 DECEMBER 2017

Location

FAA Identifier: 10NE
Lat/Long: 41-15-55.9940N / 095-57-16.0520W
41-15.933233N / 095-57.267533W
41.2655539 / -95.9544589
(estimated)
Elevation: 1130 ft. / 344 m (estimated)
Variation: 06E (1985)
Time zone: UTC -6 (UTC -5 during Daylight Saving Time)
Zip code: 68131

Heliport Operations

Heliport use: Private use, MEDICAL.
Activation date: 05/1979
Control tower: no
ARTCC: MINNEAPOLIS CENTER
FSS: COLUMBUS FLIGHT SERVICE STATION
Attendance: UNATNDD
Wind indicator: yes
Segmented circle: no
Beacon: white-green-yellow (heliport)
Operates sunset to sunrise.

Heliport Communications

UNICOM: 123.05
WX ASOS at OMA (4 nm NE): PHONE 402-344-0324
WX AWOS-3 at MLE (8 nm SW): 118.25 (402-895-6778)
WX AWOS-3 at CBF (9 nm E): 126.575 (712-323-1542)
WX AWOS-3 at BTA (11 nm NW): 120.225 (402-426-0448)
WX AWOS-3 at PMV (19 nm S): 118.975 (402-298-7524)

Nearby radio navigation aids

VOR radial/distance  VOR name  Freq  Var
OVRr293/11.5OMAHA VORTAC116.3008E
SCBr118/36.5SCRIBNER VOR/DME111.0006E

 
NDB name  Hdg/Dist  Freq  Var  ID
RIKKY289/6.742605EEN . -.
PLATTSMOUTH349/19.432905EPMV .--. -- ...-
WAHOO081/29.140006EAHQ .- .... --.-
SHENANDOAH316/39.541105ESDA ... -.. .-
NEBRASKA CITY351/39.834703EAFK .- ..-. -.-

Heliport Services

Fuel available: A
Airframe service: NONE
Powerplant service: NONE
Bottled oxygen: NONE
Bulk oxygen: NONE

Runway Information

Helipad H1

Dimensions: 67 x 60 ft. / 20 x 18 m
Surface: concrete
Runway edge lights: PERIMETER LGTS.
Latitude: 41-15.933233N
Longitude: 095-57.267533W
Elevation: 1130.0 ft.
Traffic pattern: leftleft

Heliport Ownership and Management from official FAA records

Ownership: Privately-owned
Owner: SAINT JOSEPH HOSPITAL
601 N. 30TH ST
OMAHA, NE 68131
Phone 402-449-4588
Manager: THERESA GREGG
601 N 30TH ST
OMAHA, NE 68131
Phone 402-449-4789

Heliport Operational Statistics

Aircraft based on the field: 1
Helicopters: 1
    

Additional Remarks

A30A-H1 TFC PATTERN 270 DEG CLOCKWISE TO 090 DEG.

Instrument Procedures

There are no published instrument procedures at 10NE.

Some nearby airports with instrument procedures:

KOMA - Eppley Airfield (4 nm NE)
KMLE - Millard Airport (8 nm SW)
KCBF - Council Bluffs Municipal Airport (9 nm E)
KOFF - Offutt Air Force Base (9 nm S)
KBTA - Blair Municipal Airport (11 nm NW)
KPMV - Plattsmouth Municipal Airport (19 nm S)
 
Loc | Ops | Rwys | IFR | FBO | Links
Com | Nav | Svcs | Stats | Notes

Silverhawk Aviation, Inc.
AirBoss

 
Area around 10NE (St Joseph Hospital Heliport)
 
Road maps at: MapQuest Bing Google
 
Aerial photo
No photo
 
Sectional chart

 
Airport distance calculator
Flying to St Joseph Hospital Heliport? Find the distance to fly.

From to 10NE

Sunrise and sunset
Times for 18-Dec-2017
 Local
(UTC-6)
 Zulu
(UTC)
Morning civil twilight07:1413:14
Sunrise07:4513:45
Sunset16:5522:55
Evening civil twilight17:2723:27

Current date and time
Zulu (UTC)  18-Dec-2017 13:40:30
Local (UTC-6)  18-Dec-2017 07:40:30
 
METAR
KOMA 
4nm NE 
181252Z 15007KT 7SM CLR M03/M06 A2994 RMK AO2 SLP148 T10331061
KMLE 
8nm SW 
181315Z AUTO 00000KT 7SM CLR M03/M04 A2993 RMK AO2 T10301039
KCBF 
8nm E 
181315Z AUTO 21012KT 10SM CLR M01/M01 A2992 RMK AO2
KOFF 
9nm S 
181256Z AUTO 00000KT 8SM CLR M05/M06 A2994 RMK AO2 SLP156 T10501061 $
KBTA 
11nm NW 
181315Z AUTO 21013G18KT 10SM CLR 00/M01 A2990 RMK AO2 T00011015
KPMV 
19nm S 
181315Z AUTO 21011KT 10SM CLR M01/M02 A2993 RMK AO2 T10071017
TAF
KOMA 
4nm NE 
181139Z 1812/1912 18005KT 4SM BR FEW002 TEMPO 1812/1814 2SM BR SCT002 FM181500 19005KT P6SM FEW250 FM181800 21012KT P6SM FEW250
KOFF 
9nm S 
181155Z 1811/1916 19006KT 9999 FEW180 QNH2994INS TEMPO 1811/1814 3200 BR BECMG 1814/1815 20009KT 9999 FEW180 QNH2986INS BECMG 1902/1903 24006KT 9999 FEW200 QNH2987INS WND 30006KT AFT 1913 TX11/1821Z TNM07/1812Z
NOTAMs
Click for the latest NOTAMs
NOTAMs are issued by the DoD/FAA and will open in a separate window not controlled by AirNav.

 

 
 

Would you like to see your business listed on this page?

 If your business provides an interesting product or service to pilots, flight crews, aircraft, or users of the St Joseph Hospital Heliport, you should consider listing it here.  To start the listing process, click on the button below
 
Add a business
 

Other Pages about St Joseph Hospital Heliport

Update a link
 
Copyright © AirNav, LLC. All rights reserved. Privacy Policy  Contact